User: anonymous   Login
Location: Unspecified
(0.0000°N, 0.0000°E)
Time: 10:15:14
(UTC+00:00)
Language:

TYVAK-61C - Orbit

View from above orbital plane
View from above orbital plane
View from above satellite
View from above satellite

Ground track
Ground track

The orbit data is extracted from the following two-line orbital elements,

1 43144U 18004AK  19111.83494830  .00001703  00000-0  72169-4 0  9991
2 43144  97.4937 180.3961 0009869 108.9551 251.2757 15.24496153 70732
Epoch (UTC): 21 April 2019 20:02:19
Eccentricity: 0.0009869
inclination: 97.4937°
perigee height: 485 km
apogee height: 499 km
right ascension of ascending node: 180.3961°
argument of perigee: 108.9551°
revolutions per day: 15.24496153
mean anomaly at epoch: 251.2757°
orbit number at epoch: 7073

The dashed part of the orbit path shows where the satellite is in the earth's shadow,  

DLR